Regional Weather Roundup
Issued by NWS

Home | Current Version | Previous Version | Text Only | Print | Product List | Glossary Off
Versions: 1 2 3 4 5 6 7 8 9 10 11 12 13 14 15 16 17 18 19 20 21 22 23 24 25 26 27 28 29 30 31 32 33 34 35 36 37 38 39 40 41 42 43 44 45 46 47 48 49 50

000
ASUS43 KFSD 262210
RWRSD

WEATHER ROUNDUP FOR SOUTH DAKOTA
NATIONAL WEATHER SERVICE SIOUX FALLS SD
500 PM CDT SAT MAY 26 2018

NOTE: "FAIR" INDICATES FEW OR NO CLOUDS BELOW 12,000 FEET WITH NO
SIGNIFICANT WEATHER AND/OR OBSTRUCTIONS TO VISIBILITY.


SDZ001>005-009-010-012>017-262300-
NORTHWEST AND NORTH CENTRAL SOUTH DAKOTA

CITY           SKY/WX    TMP DP  RH WIND       PRES   REMARKS
BUFFALO          N/A     89  56  32 SE22G28   29.66F
FAITH            N/A     87  61  41 SE17G25   29.73F
MOBRIDGE       SUNNY     90  61  37 SE3       29.71F
$$

SDZ012>016-024>037-041>051-057-063-072>074-262300-
SOUTHWEST AND SOUTH CENTRAL SOUTH DAKOTA

CITY           SKY/WX    TMP DP  RH WIND       PRES   REMARKS
RAPID CTY ARPT SUNNY     88  63  43 S15       29.73F
PIERRE         SUNNY     90  64  42 SE13      29.70F
CUSTER         SUNNY     82  39  21 SE8       29.90F
ELLSWORTH AFB  SUNNY     89  62  40 S20G28    29.71F
PHILIP         SUNNY     91  63  39 SE15      29.69F
PINE RIDGE     SUNNY     93  55  27 S17G25    29.74F
SPEARFISH      LGT RAIN  88  63  42 E9        29.75F
WINNER         FAIR      91  64  40 SE14      29.75F
$$

SDZ004>011-016>023-039-040-262300-
NORTHEAST SOUTH DAKOTA

CITY           SKY/WX    TMP DP  RH WIND       PRES   REMARKS
ABERDEEN       SUNNY     96  50  20 SW3       29.71F
WATERTOWN      SUNNY     89  54  30 NW6       29.76F
BROOKINGS      SUNNY     91  56  30 NW9       29.76S
SISSETON         N/A     93  50  23 W12       29.70S
$$

SDZ017-020-022-023-036>040-048>070-262300-
SOUTHEAST SOUTH DAKOTA

CITY           SKY/WX    TMP DP  RH WIND       PRES   REMARKS
SIOUX FALLS    MOSUNNY   92  60  34 NW8       29.75S
HURON          SUNNY     92  60  34 SW6       29.72F
CHAMBERLAIN    SUNNY     94  59  31 S7        29.74F
MITCHELL       SUNNY     94  62  34 E5        29.73F
YANKTON        SUNNY     95  50  21 CALM      29.75S
$$

ABBREVIATIONS USED IN REMARKS
   TC - TEMPERATURE IN CELSIUS
  WCI - WIND CHILL INDEX
   HX - HEAT INDEX
  VSB - VISIBILITY





USA.gov is the U.S. government's official web portal to all federal, state and local government web resources and services.